Regional Weather Roundup
Issued by NWS Bismarck, ND

Home | Current Version | Previous Version | Text Only | Print | Product List | Glossary On
Versions: 1 2 3 4 5 6 7 8 9 10 11 12 13 14 15 16 17 18 19 20 21 22 23 24 25 26 27 28 29 30 31 32 33 34 35 36 37 38 39 40 41 42 43 44 45 46 47 48 49 50
000
ASUS43 KBIS 231510
RWRBIS

NWR BROADCAST TEXT
NATIONAL WEATHER SERVICE BISMARCK ND
1000 AM CDT SAT JUL 23 2016

NOTE: "FAIR" INDICATES FEW OR NO CLOUDS BELOW 12,000 FEET WITH NO
SIGNIFICANT WEATHER AND/OR OBSTRUCTIONS TO VISIBILITY.


CITY           SKY/WX    TMP DP  RH WIND       PRES   REMARKS
WILLISTON      SUNNY     75  60  59 W14       29.84R
MINOT          CLOUDY    69  64  84 S6        29.77F THUNDER
MINOT AFB      CLOUDY    66  63  89 S5        29.76S
BISMARCK       PTSUNNY   69  64  84 NE17G23   29.78F
DICKINSON      CLOUDY    66  62  87 N7        29.85R
GARRISON         N/A     69  65  86 E12       29.77F
HETTINGER ARPT MOSUNNY   75  62  64 NW23      29.84R
JAMESTOWN      CLOUDY    74  69  85 NE5       29.75F
BEACH          FAIR      72  57  60 NW21      29.93R
CARRINGTON     TSTM      66  63  88 N13G26    29.87R
HAZEN          CLOUDY    66  63  88 E8G18     29.81S
MANDAN         FAIR      70  64  83 NE13      29.79F
OAKES            N/A    N/A N/A N/A MISG        N/A
STANLEY        CLOUDY    64  64 100 SW6       29.87R
WATFORD CITY     N/A    N/A N/A N/A MISG        N/A
$$

CITY           SKY/WX    TMP DP  RH WIND       PRES   REMARKS
GRAND FORKS    CLOUDY    73  65  75 NE8       29.80F
GRAND FORKS AF CLOUDY    71  65  80 NE5       29.81F
DEVILS LAKE    RAIN      66  64  93 NW15      29.85F
FARGO          CLOUDY    79  67  66 SE12      29.76F
CAVALIER       LGT RAIN  64  64 100 MISG      29.88F
GRAFTON        FAIR      68  68 100 NW13      29.87R
GWINNER        FAIR      77  73  88 E13       29.72F
LANGDON        LGT RAIN  66  66 100 SW7       29.89F
ROLLA            N/A     64  64 100 S7        29.82F
$$

CITY           SKY/WX    TMP DP  RH WIND       PRES   REMARKS
ABERDEEN       CLOUDY    74  69  85 S14       29.73R
MOBRIDGE       CLOUDY    79  74  84 S13       29.72R
BUFFALO          N/A     76  58  53 NW26G36   29.83R
RAPID CITY     SUNNY     83  56  39 N26G35    29.86S
GLASGOW        SUNNY     71  46  40 W16G25    29.87S
SIDNEY         CLOUDY    71  58  63 W14       29.87R
WOLF POINT     SUNNY     74  48  39 W20G30    29.88R
GLENDIVE       SUNNY     72  51  47 NW21G26   29.91R
MILES CITY     SUNNY     76  45  33 NW15      29.96R
BAKER          SUNNY     73  53  49 NW23G32   29.93R
$$

CITY           SKY/WX    TMP DP  RH WIND       PRES   REMARKS
BILLINGS       SUNNY     71  45  39 SW9       30.05R
GREAT FALLS    MOSUNNY   71  39  31 W17G24    30.07R
REGINA         CLOUDY    64  61  88 W17G26    29.73R
ESTEVAN        PTSUNNY   70  64  83 S13G20    29.78S
$$




USA.gov is the U.S. government's official web portal to all federal, state and local government web resources and services.